TimeEDT,TemperatureF,Dew PointF,Humidity,Sea Level PressureIn,VisibilityMPH,Wind Direction,Wind SpeedMPH,Gust SpeedMPH,PrecipitationIn,Events,Conditions,WindDirDegrees,DateUTC
12:54 AM,54.0,52.0,93,29.87,10.0,West,3.5,-,0.00,,Overcast,260,2012-10-06 04:54:00
1:54 AM,53.1,50.0,89,29.86,6.0,West,9.2,-,0.01,Rain,Rain,280,2012-10-06 05:54:00
2:01 AM,53.6,50.0,88,29.86,6.0,WNW,9.2,-,0.01,Rain,Rain,290,2012-10-06 06:01:00
2:54 AM,51.1,50.0,96,29.82,2.0,NW,3.5,-,0.13,Rain,Heavy Rain,310,2012-10-06 06:54:00
3:01 AM,51.8,50.0,94,29.82,2.5,West,4.6,-,0.04,Rain,Rain,280,2012-10-06 07:01:00
3:10 AM,51.8,50.0,94,29.84,2.5,West,10.4,-,0.08,Rain,Heavy Rain,280,2012-10-06 07:10:00
3:23 AM,51.8,48.2,88,29.84,2.5,WNW,6.9,-,0.16,Rain,Heavy Rain,290,2012-10-06 07:23:00
3:28 AM,51.8,48.2,88,29.84,3.0,WNW,4.6,-,0.19,Rain,Heavy Rain,290,2012-10-06 07:28:00
3:36 AM,51.8,50.0,94,29.82,4.0,Calm,Calm,-,0.22,Rain,Rain,0,2012-10-06 07:36:00
3:46 AM,51.8,48.2,88,29.82,4.0,WSW,3.5,-,0.24,Rain,Rain,240,2012-10-06 07:46:00
3:54 AM,51.1,48.9,92,29.82,3.0,Calm,Calm,-,0.27,Rain,Rain,0,2012-10-06 07:54:00
4:05 AM,51.8,48.2,88,29.82,5.0,Calm,Calm,-,0.02,Rain,Light Rain,0,2012-10-06 08:05:00
4:29 AM,51.8,48.2,88,29.81,3.0,West,3.5,-,0.06,Rain,Rain,280,2012-10-06 08:29:00
4:54 AM,48.9,46.9,93,29.84,4.0,WNW,10.4,20.7,0.17,Rain,Heavy Rain,290,2012-10-06 08:54:00
5:12 AM,48.2,46.4,93,29.84,3.0,West,6.9,-,0.06,Rain,Heavy Rain,270,2012-10-06 09:12:00
5:54 AM,48.0,46.0,93,29.85,4.0,West,6.9,-,0.23,Rain,Rain,260,2012-10-06 09:54:00
7:15 AM,48.2,46.4,93,29.86,7.0,WSW,8.1,-,0.02,Rain,Light Rain,240,2012-10-06 11:15:00
7:26 AM,48.2,46.4,93,29.86,10.0,WSW,6.9,-,0.03,Rain,Light Rain,250,2012-10-06 11:26:00
7:54 AM,48.0,46.0,93,29.86,7.0,WSW,6.9,-,0.03,,Overcast,240,2012-10-06 11:54:00
8:54 AM,48.9,46.0,90,29.87,10.0,WSW,9.2,-,0.00,,Overcast,240,2012-10-06 12:54:00
9:54 AM,48.9,45.0,86,29.88,10.0,WSW,8.1,-,N/A,,Overcast,240,2012-10-06 13:54:00
10:54 AM,51.1,45.0,80,29.88,10.0,WSW,13.8,18.4,N/A,,Scattered Clouds,240,2012-10-06 14:54:00
11:40 AM,53.6,41.0,62,29.89,10.0,West,17.3,23.0,N/A,,Mostly Cloudy,260,2012-10-06 15:40:00
11:54 AM,54.0,42.1,64,29.89,10.0,WSW,13.8,-,N/A,,Mostly Cloudy,250,2012-10-06 15:54:00
12:10 PM,55.4,41.0,58,29.88,10.0,WSW,19.6,29.9,N/A,,Scattered Clouds,240,2012-10-06 16:10:00
12:50 PM,53.6,39.2,58,29.89,10.0,WNW,15.0,23.0,N/A,,Scattered Clouds,290,2012-10-06 16:50:00
12:54 PM,54.0,39.9,59,29.89,10.0,West,15.0,23.0,N/A,,Scattered Clouds,270,2012-10-06 16:54:00
1:54 PM,55.0,37.9,53,29.88,10.0,WSW,16.1,25.3,N/A,,Scattered Clouds,250,2012-10-06 17:54:00
2:54 PM,57.0,37.9,49,29.89,10.0,West,19.6,26.5,N/A,,Scattered Clouds,260,2012-10-06 18:54:00
3:54 PM,54.0,35.1,49,29.91,10.0,WSW,21.9,28.8,N/A,,Scattered Clouds,240,2012-10-06 19:54:00
4:54 PM,53.1,33.1,47,29.92,10.0,WNW,19.6,25.3,N/A,,Scattered Clouds,290,2012-10-06 20:54:00
5:54 PM,51.8,33.8,50,29.94,10.0,West,16.1,25.3,N/A,,Scattered Clouds,270,2012-10-06 21:54:00
6:54 PM,48.2,33.8,58,29.96,10.0,West,11.5,-,N/A,,Partly Cloudy,260,2012-10-06 22:54:00
7:54 PM,45.0,35.1,68,30.00,10.0,SW,9.2,-,N/A,,Scattered Clouds,230,2012-10-06 23:54:00
8:54 PM,45.0,33.1,63,30.02,10.0,WSW,8.1,-,N/A,,Scattered Clouds,250,2012-10-07 00:54:00
9:54 PM,44.1,34.0,68,30.03,10.0,SW,4.6,-,N/A,,Scattered Clouds,230,2012-10-07 01:54:00
10:54 PM,44.1,35.1,71,30.04,10.0,WSW,6.9,-,N/A,,Mostly Cloudy,250,2012-10-07 02:54:00
11:54 PM,44.1,35.1,71,30.04,10.0,WSW,4.6,-,N/A,,Mostly Cloudy,250,2012-10-07 03:54:00